Simultaneous Nadir Overpasses (SNOs) Predictions

Prediction of SNOs between GOES-16 and METOP-B Satellite Orbit:

Table of predicted SNOs for the next 14.0 days since TLE Epoch: 11/7/2025
Index Date Time (GOES-16) GOES-16 Lat,Lon METOP-B Lat,Lon Distance(km) Time Diff (sec)
1 11/08/2025 03:48:40 -0.05,-104.65 0.46,-102.47 248.64 80
2 11/09/2025 16:07:41 0.05,-104.71 0.61,-107.07 269.35 80
3 11/10/2025 15:49:49 0.06,-104.71 -0.55,-102.11 296.96 80
4 11/12/2025 04:08:57 -0.06,-104.64 -0.51,-106.74 237.87 80
5 11/13/2025 03:45:44 -0.07,-104.65 0.59,-101.77 328.45 80
6 11/14/2025 16:04:45 0.06,-104.71 0.46,-106.36 188.90 80
7 11/15/2025 15:46:52 0.07,-104.72 -0.65,-101.40 377.99 80
8 11/17/2025 04:06:01 -0.06,-104.66 -0.35,-106.04 155.97 80
9 11/18/2025 03:42:47 -0.07,-104.66 0.77,-101.07 410.59 80
10 11/19/2025 16:01:49 0.06,-104.73 0.26,-105.67 107.02 80
11 11/20/2025 15:43:55 0.07,-104.73 -0.85,-100.70 459.80 80
